iso_date,epoch_date,Year,Hour,Min,DOY,POS_DOY,Lat,Lon,BP,Ts,Ta,has_bp,has_ts,has_ta,BuoyID,Buoy_Type,Buoy_Owner,Logistics,Hemisphere
2014-01-23T00:40:19Z,1390437619,2014,0,40,23.028,23.049,69.0756,-173.9372,1032.4,35.48,-999.0,yes,yes,no,101628,SVPBD2,AOML,USCG_HEALY,North
2014-01-23T01:39:21Z,1390441162,2014,1,40,23.069,23.049,69.0756,-173.9372,1032.5,35.56,-999.0,yes,yes,no,101628,SVPBD2,AOML,USCG_HEALY,North
2014-01-23T02:39:50Z,1390444790,2014,2,40,23.111,23.049,69.0756,-173.9372,1032.7,35.56,-999.0,yes,yes,no,101628,SVPBD2,AOML,USCG_HEALY,North
2014-01-23T03:40:19Z,1390448419,2014,3,40,23.153,23.049,69.0756,-173.9372,1032.9,35.56,-999.0,yes,yes,no,101628,SVPBD2,AOML,USCG_HEALY,North
2014-01-23T04:39:21Z,1390451962,2014,4,40,23.194,23.049,69.0756,-173.9372,1033.1,35.56,-999.0,yes,yes,no,101628,SVPBD2,AOML,USCG_HEALY,North
2014-01-23T05:39:50Z,1390455590,2014,5,40,23.236,23.342,69.0767,-174.0272,1033.2,35.56,-999.0,yes,yes,no,101628,SVPBD2,AOML,USCG_HEALY,North
2014-01-23T06:40:19Z,1390459219,2014,6,40,23.278,23.342,69.0767,-174.0272,1033.4,35.56,-999.0,yes,yes,no,101628,SVPBD2,AOML,USCG_HEALY,North
2014-01-23T07:39:21Z,1390462762,2014,7,40,23.319,23.342,69.0767,-174.0272,1033.5,35.56,-999.0,yes,yes,no,101628,SVPBD2,AOML,USCG_HEALY,North
2014-01-23T10:39:21Z,1390473562,2014,10,40,23.444,23.342,69.0767,-174.0272,1033.9,35.56,-999.0,yes,yes,no,101628,SVPBD2,AOML,USCG_HEALY,North
2014-01-23T11:39:50Z,1390477190,2014,11,40,23.486,23.342,69.0767,-174.0272,1034.0,35.64,-999.0,yes,yes,no,101628,SVPBD2,AOML,USCG_HEALY,North
2014-01-23T12:40:19Z,1390480819,2014,12,40,23.528,23.619,69.0781,-174.0256,1033.9,35.64,-999.0,yes,yes,no,101628,SVPBD2,AOML,USCG_HEALY,North
2014-01-23T13:39:21Z,1390484362,2014,13,40,23.569,23.619,69.0781,-174.0256,1033.6,35.64,-999.0,yes,yes,no,101628,SVPBD2,AOML,USCG_HEALY,North
2014-01-23T14:39:50Z,1390487990,2014,14,40,23.611,23.619,69.0781,-174.0256,1033.6,35.64,-999.0,yes,yes,no,101628,SVPBD2,AOML,USCG_HEALY,North
2014-01-23T15:40:19Z,1390491619,2014,15,40,23.653,23.684,69.0778,-174.0236,1033.5,35.64,-999.0,yes,yes,no,101628,SVPBD2,AOML,USCG_HEALY,North
2014-01-23T16:39:21Z,1390495162,2014,16,40,23.694,23.693,69.0775,-174.0267,1033.0,35.64,-999.0,yes,yes,no,101628,SVPBD2,AOML,USCG_HEALY,North
2014-01-23T18:40:19Z,1390502419,2014,18,40,23.778,23.693,69.0772,-174.0253,1032.9,35.72,-999.0,yes,yes,no,101628,SVPBD2,AOML,USCG_HEALY,North
2014-01-23T19:39:21Z,1390505962,2014,19,40,23.819,23.919,69.0778,-174.0233,1032.7,35.72,-999.0,yes,yes,no,101628,SVPBD2,AOML,USCG_HEALY,North
2014-01-23T20:39:50Z,1390509590,2014,20,40,23.861,23.919,69.0778,-174.0233,1032.8,35.72,-999.0,yes,yes,no,101628,SVPBD2,AOML,USCG_HEALY,North
2014-01-23T21:40:19Z,1390513219,2014,21,40,23.903,23.919,69.0778,-174.0233,1032.9,35.72,-999.0,yes,yes,no,101628,SVPBD2,AOML,USCG_HEALY,North
2014-01-23T22:39:21Z,1390516762,2014,22,40,23.944,23.919,69.0778,-174.0233,1033.0,35.72,-999.0,yes,yes,no,101628,SVPBD2,AOML,USCG_HEALY,North
2014-01-23T23:39:50Z,1390520390,2014,23,40,23.986,23.919,69.0778,-174.0233,1032.9,35.72,-999.0,yes,yes,no,101628,SVPBD2,AOML,USCG_HEALY,North
2014-01-24T00:40:19Z,1390524019,2014,0,40,24.028,24.074,69.0761,-174.0292,1033.0,35.8,-999.0,yes,yes,no,101628,SVPBD2,AOML,USCG_HEALY,North
2014-01-24T01:39:21Z,1390527562,2014,1,40,24.069,24.074,69.0761,-174.0292,1033.0,35.8,-999.0,yes,yes,no,101628,SVPBD2,AOML,USCG_HEALY,North
2014-01-24T02:39:50Z,1390531190,2014,2,40,24.111,24.144,69.0756,-174.0294,1033.1,35.8,-999.0,yes,yes,no,101628,SVPBD2,AOML,USCG_HEALY,North
2014-01-24T03:40:19Z,1390534819,2014,3,40,24.153,24.144,69.0756,-174.0294,1033.2,35.8,-999.0,yes,yes,no,101628,SVPBD2,AOML,USCG_HEALY,North
2014-01-24T04:39:21Z,1390538362,2014,4,40,24.194,24.144,69.0756,-174.0294,1033.3,35.8,-999.0,yes,yes,no,101628,SVPBD2,AOML,USCG_HEALY,North
2014-01-24T05:39:50Z,1390541990,2014,5,40,24.236,24.264,69.0769,-174.0258,1033.4,35.8,-999.0,yes,yes,no,101628,SVPBD2,AOML,USCG_HEALY,North
2014-01-24T06:40:19Z,1390545619,2014,6,40,24.278,24.279,69.0769,-174.0264,1033.5,35.8,-999.0,yes,yes,no,101628,SVPBD2,AOML,USCG_HEALY,North
2014-01-24T07:39:21Z,1390549162,2014,7,40,24.319,24.333,69.0772,-174.025,1033.6,35.88,-999.0,yes,yes,no,101628,SVPBD2,AOML,USCG_HEALY,North
2014-01-24T08:39:50Z,1390552790,2014,8,40,24.361,24.333,69.0772,-174.025,1033.7,35.88,-999.0,yes,yes,no,101628,SVPBD2,AOML,USCG_HEALY,North
2014-01-24T12:40:19Z,1390567219,2014,12,40,24.528,24.333,69.0772,-174.025,1033.9,35.88,-999.0,yes,yes,no,101628,SVPBD2,AOML,USCG_HEALY,North
2014-01-24T13:39:21Z,1390570762,2014,13,40,24.569,24.713,69.0769,-174.0281,1033.9,35.88,-999.0,yes,yes,no,101628,SVPBD2,AOML,USCG_HEALY,North
2014-01-24T14:39:50Z,1390574390,2014,14,40,24.611,24.713,69.0769,-174.0281,1033.9,-5.0,-999.0,yes,yes,no,101628,SVPBD2,AOML,USCG_HEALY,North
2014-01-24T15:40:19Z,1390578019,2014,15,40,24.653,24.713,69.0769,-174.0281,1033.9,-5.0,-999.0,yes,yes,no,101628,SVPBD2,AOML,USCG_HEALY,North
2014-01-24T16:39:21Z,1390581562,2014,16,40,24.694,24.713,69.0769,-174.0281,1033.8,-5.0,-999.0,yes,yes,no,101628,SVPBD2,AOML,USCG_HEALY,North
2014-01-24T19:39:21Z,1390592362,2014,19,40,24.819,24.713,69.0769,-174.0281,1033.9,-5.0,-999.0,yes,yes,no,101628,SVPBD2,AOML,USCG_HEALY,North
2014-01-24T20:39:50Z,1390595990,2014,20,40,24.861,24.713,69.0769,-174.0281,1034.1,-5.0,-999.0,yes,yes,no,101628,SVPBD2,AOML,USCG_HEALY,North
2014-01-24T21:40:19Z,1390599619,2014,21,40,24.903,24.713,69.0769,-174.0281,1034.1,-5.0,-999.0,yes,yes,no,101628,SVPBD2,AOML,USCG_HEALY,North
2014-01-24T22:39:21Z,1390603162,2014,22,40,24.944,25.103,69.0769,-174.0239,1034.1,-5.0,-999.0,yes,yes,no,101628,SVPBD2,AOML,USCG_HEALY,North
2014-01-24T23:39:50Z,1390606790,2014,23,40,24.986,25.103,69.0769,-174.0239,1034.1,-5.0,-999.0,yes,yes,no,101628,SVPBD2,AOML,USCG_HEALY,North
2014-01-25T00:40:19Z,1390610419,2014,0,40,25.028,25.103,69.0769,-174.0239,1034.2,-5.0,-999.0,yes,yes,no,101628,SVPBD2,AOML,USCG_HEALY,North
2014-01-25T01:39:21Z,1390613962,2014,1,40,25.069,25.103,69.0769,-174.0239,1034.2,-5.0,-999.0,yes,yes,no,101628,SVPBD2,AOML,USCG_HEALY,North
2014-01-25T02:39:50Z,1390617590,2014,2,40,25.111,25.103,69.0769,-174.0239,1034.3,-4.92,-999.0,yes,yes,no,101628,SVPBD2,AOML,USCG_HEALY,North
2014-01-25T03:40:19Z,1390621219,2014,3,40,25.153,25.126,69.0767,-174.0222,1034.4,-4.92,-999.0,yes,yes,no,101628,SVPBD2,AOML,USCG_HEALY,North
2014-01-25T04:39:21Z,1390624762,2014,4,40,25.194,25.126,69.0767,-174.0222,1034.4,-4.92,-999.0,yes,yes,no,101628,SVPBD2,AOML,USCG_HEALY,North
2014-01-25T05:39:50Z,1390628390,2014,5,40,25.236,25.319,69.0778,-174.0183,1034.4,-4.92,-999.0,yes,yes,no,101628,SVPBD2,AOML,USCG_HEALY,North
2014-01-25T06:40:19Z,1390632019,2014,6,40,25.278,25.319,69.0778,-174.0183,1034.4,-4.92,-999.0,yes,yes,no,101628,SVPBD2,AOML,USCG_HEALY,North
2014-01-25T07:39:21Z,1390635562,2014,7,40,25.319,25.319,69.0778,-174.0183,1034.4,-4.92,-999.0,yes,yes,no,101628,SVPBD2,AOML,USCG_HEALY,North
2014-01-25T08:39:50Z,1390639190,2014,8,40,25.361,25.319,69.0778,-174.0183,1034.4,-4.92,-999.0,yes,yes,no,101628,SVPBD2,AOML,USCG_HEALY,North
2014-01-25T10:39:21Z,1390646362,2014,10,40,25.444,25.319,69.0778,-174.0183,1034.7,-4.84,-999.0,yes,yes,no,101628,SVPBD2,AOML,USCG_HEALY,North
2014-01-25T11:39:50Z,1390649990,2014,11,40,25.486,25.641,69.0825,-173.9486,1034.9,-4.84,-999.0,yes,yes,no,101628,SVPBD2,AOML,USCG_HEALY,North
2014-01-25T12:40:19Z,1390653619,2014,12,40,25.528,25.641,69.0825,-173.9486,1035.3,-4.84,-999.0,yes,yes,no,101628,SVPBD2,AOML,USCG_HEALY,North
2014-01-25T13:39:21Z,1390657162,2014,13,40,25.569,25.641,69.0825,-173.9486,1035.6,-4.84,-999.0,yes,yes,no,101628,SVPBD2,AOML,USCG_HEALY,North
2014-01-25T14:39:50Z,1390660790,2014,14,40,25.611,25.641,69.0825,-173.9486,1035.9,-4.84,-999.0,yes,yes,no,101628,SVPBD2,AOML,USCG_HEALY,North
2014-01-25T15:40:19Z,1390664419,2014,15,40,25.653,25.641,69.0825,-173.9486,1036.3,-4.84,-999.0,yes,yes,no,101628,SVPBD2,AOML,USCG_HEALY,North
2014-01-25T16:39:21Z,1390667962,2014,16,40,25.694,25.641,69.0825,-173.9486,1036.8,-4.76,-999.0,yes,yes,no,101628,SVPBD2,AOML,USCG_HEALY,North
2014-01-25T17:39:50Z,1390671590,2014,17,40,25.736,25.641,69.0825,-173.9486,1037.4,-4.76,-999.0,yes,yes,no,101628,SVPBD2,AOML,USCG_HEALY,North
2014-01-25T19:39:21Z,1390678762,2014,19,40,25.819,25.953,69.0747,-173.8239,1038.5,-4.76,-999.0,yes,yes,no,101628,SVPBD2,AOML,USCG_HEALY,North
2014-01-25T20:39:50Z,1390682390,2014,20,40,25.861,25.953,69.0747,-173.8239,1039.4,-4.76,-999.0,yes,yes,no,101628,SVPBD2,AOML,USCG_HEALY,North
2014-01-25T21:40:19Z,1390686019,2014,21,40,25.903,25.953,69.0747,-173.8239,1040.0,-4.76,-999.0,yes,yes,no,101628,SVPBD2,AOML,USCG_HEALY,North
2014-01-25T22:39:21Z,1390689562,2014,22,40,25.944,25.953,69.0747,-173.8239,1040.9,-4.76,-999.0,yes,yes,no,101628,SVPBD2,AOML,USCG_HEALY,North
2014-01-25T23:39:50Z,1390693190,2014,23,40,25.986,25.953,69.0747,-173.8239,1041.4,-4.68,-999.0,yes,yes,no,101628,SVPBD2,AOML,USCG_HEALY,North
2014-01-26T00:40:19Z,1390696819,2014,0,40,26.028,26.097,69.0722,-173.7836,1042.0,-4.68,-999.0,yes,yes,no,101628,SVPBD2,AOML,USCG_HEALY,North
2014-01-26T01:39:21Z,1390700362,2014,1,40,26.069,26.097,69.0722,-173.7836,1042.4,-4.68,-999.0,yes,yes,no,101628,SVPBD2,AOML,USCG_HEALY,North
2014-01-26T02:39:50Z,1390703990,2014,2,40,26.111,26.097,69.0722,-173.7836,1042.8,-4.68,-999.0,yes,yes,no,101628,SVPBD2,AOML,USCG_HEALY,North
2014-01-26T03:40:19Z,1390707619,2014,3,40,26.153,26.097,69.0722,-173.7836,1042.9,-4.68,-999.0,yes,yes,no,101628,SVPBD2,AOML,USCG_HEALY,North
2014-01-26T04:39:21Z,1390711162,2014,4,40,26.194,26.097,69.0722,-173.7836,1043.3,-4.68,-999.0,yes,yes,no,101628,SVPBD2,AOML,USCG_HEALY,North
2014-01-26T05:39:50Z,1390714790,2014,5,40,26.236,26.305,69.07,-173.7422,1043.8,-4.68,-999.0,yes,yes,no,101628,SVPBD2,AOML,USCG_HEALY,North
2014-01-26T06:40:19Z,1390718419,2014,6,40,26.278,26.305,69.07,-173.7422,1043.8,-4.6,-999.0,yes,yes,no,101628,SVPBD2,AOML,USCG_HEALY,North
2014-01-26T07:39:21Z,1390721962,2014,7,40,26.319,26.305,69.07,-173.7422,1044.1,-4.6,-999.0,yes,yes,no,101628,SVPBD2,AOML,USCG_HEALY,North
2014-01-26T11:39:50Z,1390736390,2014,11,40,26.486,26.305,69.07,-173.7425,1044.2,-4.6,-999.0,yes,yes,no,101628,SVPBD2,AOML,USCG_HEALY,North
2014-01-26T12:40:19Z,1390740019,2014,12,40,26.528,26.305,69.07,-173.7425,1043.8,-4.6,-999.0,yes,yes,no,101628,SVPBD2,AOML,USCG_HEALY,North
2014-01-26T14:39:50Z,1390747190,2014,14,40,26.611,26.305,69.07,-173.7425,1043.0,-4.52,-999.0,yes,yes,no,101628,SVPBD2,AOML,USCG_HEALY,North
2014-01-26T15:40:19Z,1390750819,2014,15,40,26.653,26.305,69.07,-173.7425,1042.7,-4.52,-999.0,yes,yes,no,101628,SVPBD2,AOML,USCG_HEALY,North
2014-01-26T16:39:21Z,1390754362,2014,16,40,26.694,26.305,69.07,-173.7425,1042.7,-4.52,-999.0,yes,yes,no,101628,SVPBD2,AOML,USCG_HEALY,North
2014-01-26T17:39:50Z,1390757990,2014,17,40,26.736,26.305,69.07,-173.7425,1042.2,-4.52,-999.0,yes,yes,no,101628,SVPBD2,AOML,USCG_HEALY,North
2014-01-26T18:40:19Z,1390761619,2014,18,40,26.778,26.305,69.07,-173.7425,1042.1,-4.52,-999.0,yes,yes,no,101628,SVPBD2,AOML,USCG_HEALY,North
2014-01-26T19:39:21Z,1390765162,2014,19,40,26.819,26.305,69.07,-173.7425,1041.9,-4.52,-999.0,yes,yes,no,101628,SVPBD2,AOML,USCG_HEALY,North
2014-01-26T20:39:50Z,1390768790,2014,20,40,26.861,26.945,69.0494,-173.7586,1041.6,-4.52,-999.0,yes,yes,no,101628,SVPBD2,AOML,USCG_HEALY,North
2014-01-26T21:40:19Z,1390772419,2014,21,40,26.903,26.945,69.0494,-173.7586,1041.7,-4.52,-999.0,yes,yes,no,101628,SVPBD2,AOML,USCG_HEALY,North
2014-01-26T22:39:21Z,1390775962,2014,22,40,26.944,26.945,69.0494,-173.7586,1041.3,-4.44,-999.0,yes,yes,no,101628,SVPBD2,AOML,USCG_HEALY,North
2014-01-26T23:39:50Z,1390779590,2014,23,40,26.986,26.945,69.0494,-173.7586,1041.0,-4.44,-999.0,yes,yes,no,101628,SVPBD2,AOML,USCG_HEALY,North
2014-01-27T00:40:19Z,1390783219,2014,0,40,27.028,27.088,69.0511,-173.7933,1041.0,-4.44,-999.0,yes,yes,no,101628,SVPBD2,AOML,USCG_HEALY,North
2014-01-27T01:39:21Z,1390786762,2014,1,40,27.069,27.088,69.0511,-173.7933,1040.5,-4.44,-999.0,yes,yes,no,101628,SVPBD2,AOML,USCG_HEALY,North
2014-01-27T02:39:50Z,1390790390,2014,2,40,27.111,27.088,69.0522,-173.7939,1040.4,-4.44,-999.0,yes,yes,no,101628,SVPBD2,AOML,USCG_HEALY,North
2014-01-27T03:40:19Z,1390794019,2014,3,40,27.153,27.088,69.0522,-173.7939,1040.2,-4.44,-999.0,yes,yes,no,101628,SVPBD2,AOML,USCG_HEALY,North
2014-01-27T04:39:21Z,1390797562,2014,4,40,27.194,27.088,69.0522,-173.7939,1040.0,-4.44,-999.0,yes,yes,no,101628,SVPBD2,AOML,USCG_HEALY,North
2014-01-27T05:39:50Z,1390801190,2014,5,40,27.236,27.324,69.0517,-173.79,1039.9,-4.44,-999.0,yes,yes,no,101628,SVPBD2,AOML,USCG_HEALY,North
2014-01-27T06:40:19Z,1390804819,2014,6,40,27.278,27.324,69.0517,-173.79,1039.9,-4.44,-999.0,yes,yes,no,101628,SVPBD2,AOML,USCG_HEALY,North
2014-01-27T07:39:21Z,1390808362,2014,7,40,27.319,27.324,69.0517,-173.79,1039.5,-4.36,-999.0,yes,yes,no,101628,SVPBD2,AOML,USCG_HEALY,North
2014-01-27T08:39:50Z,1390811990,2014,8,40,27.361,27.324,69.0517,-173.79,1039.6,-4.36,-999.0,yes,yes,no,101628,SVPBD2,AOML,USCG_HEALY,North
2014-01-27T10:39:21Z,1390819162,2014,10,40,27.444,27.324,69.0517,-173.79,1040.0,-4.36,-999.0,yes,yes,no,101628,SVPBD2,AOML,USCG_HEALY,North
2014-01-27T12:40:19Z,1390826419,2014,12,40,27.528,27.324,69.0517,-173.79,1040.4,-4.36,-999.0,yes,yes,no,101628,SVPBD2,AOML,USCG_HEALY,North
2014-01-27T13:39:21Z,1390829962,2014,13,40,27.569,27.324,69.0517,-173.79,1040.6,-4.36,-999.0,yes,yes,no,101628,SVPBD2,AOML,USCG_HEALY,North
2014-01-27T15:40:19Z,1390837219,2014,15,40,27.653,27.324,69.0517,-173.79,1040.9,-4.36,-999.0,yes,yes,no,101628,SVPBD2,AOML,USCG_HEALY,North
2014-01-27T16:39:21Z,1390840762,2014,16,40,27.694,27.324,69.0517,-173.79,1041.0,-4.36,-999.0,yes,yes,no,101628,SVPBD2,AOML,USCG_HEALY,North
2014-01-27T17:39:50Z,1390844390,2014,17,40,27.736,27.324,69.0517,-173.79,1040.9,-4.28,-999.0,yes,yes,no,101628,SVPBD2,AOML,USCG_HEALY,North
2014-01-27T18:40:19Z,1390848019,2014,18,40,27.778,27.931,69.0503,-173.7967,1040.8,-4.28,-999.0,yes,yes,no,101628,SVPBD2,AOML,USCG_HEALY,North
2014-01-27T19:39:21Z,1390851562,2014,19,40,27.819,27.931,69.0503,-173.7967,1040.7,-4.28,-999.0,yes,yes,no,101628,SVPBD2,AOML,USCG_HEALY,North
2014-01-27T20:39:50Z,1390855190,2014,20,40,27.861,27.931,69.0503,-173.7967,1040.7,-4.28,-999.0,yes,yes,no,101628,SVPBD2,AOML,USCG_HEALY,North
2014-01-27T21:40:19Z,1390858819,2014,21,40,27.903,27.931,69.0503,-173.7967,1040.5,-4.28,-999.0,yes,yes,no,101628,SVPBD2,AOML,USCG_HEALY,North
2014-01-27T22:39:21Z,1390862362,2014,22,40,27.944,27.931,69.0503,-173.7967,1039.9,-4.28,-999.0,yes,yes,no,101628,SVPBD2,AOML,USCG_HEALY,North
2014-01-27T23:39:50Z,1390865990,2014,23,40,27.986,27.931,69.0503,-173.7967,1039.5,-4.28,-999.0,yes,yes,no,101628,SVPBD2,AOML,USCG_HEALY,North
2014-01-28T00:40:19Z,1390869619,2014,0,40,28.028,27.931,69.0503,-173.7967,1039.1,-4.28,-999.0,yes,yes,no,101628,SVPBD2,AOML,USCG_HEALY,North
2014-01-28T01:39:21Z,1390873162,2014,1,40,28.069,27.931,69.0503,-173.7967,1038.8,-4.28,-999.0,yes,yes,no,101628,SVPBD2,AOML,USCG_HEALY,North
2014-01-28T02:39:50Z,1390876790,2014,2,40,28.111,27.931,69.0503,-173.7967,1038.6,-4.28,-999.0,yes,yes,no,101628,SVPBD2,AOML,USCG_HEALY,North
2014-01-28T03:40:19Z,1390880419,2014,3,40,28.153,27.931,69.0503,-173.7967,1038.4,-4.28,-999.0,yes,yes,no,101628,SVPBD2,AOML,USCG_HEALY,North
2014-01-28T04:39:21Z,1390883962,2014,4,40,28.194,27.931,69.0503,-173.7967,1038.3,-4.28,-999.0,yes,yes,no,101628,SVPBD2,AOML,USCG_HEALY,North
2014-01-28T05:39:50Z,1390887590,2014,5,40,28.236,27.931,69.0503,-173.7967,1038.3,-4.2,-999.0,yes,yes,no,101628,SVPBD2,AOML,USCG_HEALY,North
2014-01-28T06:40:19Z,1390891219,2014,6,40,28.278,27.931,69.0503,-173.7967,1038.3,-4.2,-999.0,yes,yes,no,101628,SVPBD2,AOML,USCG_HEALY,North
2014-01-28T07:39:21Z,1390894762,2014,7,40,28.319,27.931,69.0503,-173.7967,1038.3,-4.2,-999.0,yes,yes,no,101628,SVPBD2,AOML,USCG_HEALY,North
2014-01-28T10:39:21Z,1390905562,2014,10,40,28.444,27.931,69.0503,-173.7967,1038.4,-4.2,-999.0,yes,yes,no,101628,SVPBD2,AOML,USCG_HEALY,North
2014-01-28T11:39:50Z,1390909190,2014,11,40,28.486,27.931,69.0503,-173.7967,1038.4,-4.2,-999.0,yes,yes,no,101628,SVPBD2,AOML,USCG_HEALY,North
2014-01-28T13:39:21Z,1390916362,2014,13,40,28.569,28.715,69.0567,-173.8192,1038.4,-4.2,-999.0,yes,yes,no,101628,SVPBD2,AOML,USCG_HEALY,North
2014-01-28T14:39:50Z,1390919990,2014,14,40,28.611,28.715,69.0567,-173.8192,1038.4,-4.2,-999.0,yes,yes,no,101628,SVPBD2,AOML,USCG_HEALY,North
2014-01-28T15:40:19Z,1390923619,2014,15,40,28.653,28.715,69.0567,-173.8192,1038.3,-4.2,-999.0,yes,yes,no,101628,SVPBD2,AOML,USCG_HEALY,North
2014-01-28T16:39:21Z,1390927162,2014,16,40,28.694,28.715,69.0567,-173.8192,1038.2,-4.12,-999.0,yes,yes,no,101628,SVPBD2,AOML,USCG_HEALY,North
2014-01-28T18:40:19Z,1390934419,2014,18,40,28.778,28.715,69.0567,-173.8192,1037.6,-4.12,-999.0,yes,yes,no,101628,SVPBD2,AOML,USCG_HEALY,North
2014-01-28T19:39:21Z,1390937962,2014,19,40,28.819,28.916,69.0614,-173.8217,1037.6,-4.12,-999.0,yes,yes,no,101628,SVPBD2,AOML,USCG_HEALY,North
2014-01-28T20:39:50Z,1390941590,2014,20,40,28.861,28.916,69.0614,-173.8217,1037.8,-4.12,-999.0,yes,yes,no,101628,SVPBD2,AOML,USCG_HEALY,North
2014-01-28T21:40:19Z,1390945219,2014,21,40,28.903,28.916,69.0614,-173.8217,1038.1,-4.12,-999.0,yes,yes,no,101628,SVPBD2,AOML,USCG_HEALY,North
2014-01-28T22:39:21Z,1390948762,2014,22,40,28.944,28.916,69.0614,-173.8217,1038.4,-4.12,-999.0,yes,yes,no,101628,SVPBD2,AOML,USCG_HEALY,North
2014-01-28T23:39:50Z,1390952390,2014,23,40,28.986,28.916,69.0614,-173.8217,1038.8,-4.12,-999.0,yes,yes,no,101628,SVPBD2,AOML,USCG_HEALY,North
2014-01-29T01:39:21Z,1390959562,2014,1,40,29.069,28.916,69.0614,-173.8217,1039.5,-4.12,-999.0,yes,yes,no,101628,SVPBD2,AOML,USCG_HEALY,North
2014-01-29T02:39:50Z,1390963190,2014,2,40,29.111,28.916,69.0614,-173.8217,1039.7,-4.12,-999.0,yes,yes,no,101628,SVPBD2,AOML,USCG_HEALY,North
2014-01-29T03:40:19Z,1390966819,2014,3,40,29.153,29.331,69.0825,-173.8314,1039.7,-4.12,-999.0,yes,yes,no,101628,SVPBD2,AOML,USCG_HEALY,North
2014-01-29T04:39:21Z,1390970362,2014,4,40,29.194,29.331,69.0825,-173.8314,1039.8,-4.04,-999.0,yes,yes,no,101628,SVPBD2,AOML,USCG_HEALY,North
2014-01-29T05:39:50Z,1390973990,2014,5,40,29.236,29.331,69.0825,-173.8314,1039.8,-4.04,-999.0,yes,yes,no,101628,SVPBD2,AOML,USCG_HEALY,North
2014-01-29T06:40:19Z,1390977619,2014,6,40,29.278,29.331,69.0825,-173.8314,1039.9,-4.04,-999.0,yes,yes,no,101628,SVPBD2,AOML,USCG_HEALY,North
2014-01-29T07:39:21Z,1390981162,2014,7,40,29.319,29.331,69.0825,-173.8314,1039.8,-4.04,-999.0,yes,yes,no,101628,SVPBD2,AOML,USCG_HEALY,North
2014-01-29T10:39:21Z,1390991962,2014,10,40,29.444,29.331,69.0825,-173.8314,1039.8,-4.04,-999.0,yes,yes,no,101628,SVPBD2,AOML,USCG_HEALY,North
2014-01-29T11:39:50Z,1390995590,2014,11,40,29.486,29.331,69.0825,-173.8314,1039.9,-4.04,-999.0,yes,yes,no,101628,SVPBD2,AOML,USCG_HEALY,North
2014-01-29T12:40:19Z,1390999219,2014,12,40,29.528,29.331,69.0825,-173.8314,1039.9,-4.04,-999.0,yes,yes,no,101628,SVPBD2,AOML,USCG_HEALY,North
2014-01-29T14:39:50Z,1391006390,2014,14,40,29.611,29.331,69.0825,-173.8314,1039.9,-4.04,-999.0,yes,yes,no,101628,SVPBD2,AOML,USCG_HEALY,North
2014-01-29T16:39:21Z,1391013562,2014,16,40,29.694,29.331,69.0825,-173.8314,1039.9,-3.96,-999.0,yes,yes,no,101628,SVPBD2,AOML,USCG_HEALY,North
2014-01-29T18:40:19Z,1391020819,2014,18,40,29.778,29.331,69.0825,-173.8314,1039.9,-3.96,-999.0,yes,yes,no,101628,SVPBD2,AOML,USCG_HEALY,North
2014-01-29T21:40:19Z,1391031619,2014,21,40,29.903,29.331,69.0825,-173.8314,1039.9,-3.96,-999.0,yes,yes,no,101628,SVPBD2,AOML,USCG_HEALY,North
2014-01-29T22:39:21Z,1391035162,2014,22,40,29.944,29.331,69.0825,-173.8314,1039.9,-3.96,-999.0,yes,yes,no,101628,SVPBD2,AOML,USCG_HEALY,North
2014-01-29T23:39:50Z,1391038790,2014,23,40,29.986,29.331,69.0825,-173.8314,1039.9,-3.96,-999.0,yes,yes,no,101628,SVPBD2,AOML,USCG_HEALY,North
2014-01-30T00:40:19Z,1391042419,2014,0,40,30.028,29.331,69.0825,-173.8314,1039.8,-3.96,-999.0,yes,yes,no,101628,SVPBD2,AOML,USCG_HEALY,North
2014-01-30T02:39:50Z,1391049590,2014,2,40,30.111,29.331,69.0825,-173.8314,1039.7,-3.96,-999.0,yes,yes,no,101628,SVPBD2,AOML,USCG_HEALY,North
2014-01-30T03:40:19Z,1391053219,2014,3,40,30.153,29.331,69.0825,-173.8314,1039.6,-3.96,-999.0,yes,yes,no,101628,SVPBD2,AOML,USCG_HEALY,North
2014-01-30T04:39:21Z,1391056762,2014,4,40,30.194,29.331,69.0825,-173.8314,1039.6,-3.96,-999.0,yes,yes,no,101628,SVPBD2,AOML,USCG_HEALY,North
2014-01-30T05:39:50Z,1391060390,2014,5,40,30.236,29.331,69.0825,-173.8314,1039.4,-3.88,-999.0,yes,yes,no,101628,SVPBD2,AOML,USCG_HEALY,North
2014-01-30T06:40:19Z,1391064019,2014,6,40,30.278,29.331,69.0825,-173.8314,1039.3,-3.88,-999.0,yes,yes,no,101628,SVPBD2,AOML,USCG_HEALY,North
2014-01-30T07:39:21Z,1391067562,2014,7,40,30.319,29.331,69.0825,-173.8314,1039.3,-3.88,-999.0,yes,yes,no,101628,SVPBD2,AOML,USCG_HEALY,North
2014-01-30T11:39:50Z,1391081990,2014,11,40,30.486,29.331,69.0825,-173.8314,1039.5,-3.88,-999.0,yes,yes,no,101628,SVPBD2,AOML,USCG_HEALY,North
2014-01-30T12:40:19Z,1391085619,2014,12,40,30.528,29.331,69.0825,-173.8314,1039.5,-3.88,-999.0,yes,yes,no,101628,SVPBD2,AOML,USCG_HEALY,North
2014-01-30T13:39:21Z,1391089162,2014,13,40,30.569,29.331,69.0825,-173.8314,1039.6,-3.88,-999.0,yes,yes,no,101628,SVPBD2,AOML,USCG_HEALY,North
2014-01-30T14:39:50Z,1391092790,2014,14,40,30.611,29.331,69.0825,-173.8314,1039.7,-3.88,-999.0,yes,yes,no,101628,SVPBD2,AOML,USCG_HEALY,North
2014-01-30T15:40:19Z,1391096419,2014,15,40,30.653,29.331,69.0825,-173.8314,1039.8,-3.88,-999.0,yes,yes,no,101628,SVPBD2,AOML,USCG_HEALY,North
2014-01-30T17:39:50Z,1391103590,2014,17,40,30.736,29.331,69.0825,-173.8314,1040.2,-3.88,-999.0,yes,yes,no,101628,SVPBD2,AOML,USCG_HEALY,North
2014-01-30T18:40:19Z,1391107219,2014,18,40,30.778,29.331,69.0825,-173.8314,1040.4,-3.88,-999.0,yes,yes,no,101628,SVPBD2,AOML,USCG_HEALY,North
2014-01-30T19:39:21Z,1391110762,2014,19,40,30.819,29.331,69.0825,-173.8314,1040.8,-3.8,-999.0,yes,yes,no,101628,SVPBD2,AOML,USCG_HEALY,North
2014-01-30T20:39:50Z,1391114390,2014,20,40,30.861,29.331,69.0825,-173.8314,1041.1,-3.8,-999.0,yes,yes,no,101628,SVPBD2,AOML,USCG_HEALY,North
2014-01-30T21:40:19Z,1391118019,2014,21,40,30.903,29.331,69.0825,-173.8314,1041.5,-3.8,-999.0,yes,yes,no,101628,SVPBD2,AOML,USCG_HEALY,North
2014-01-30T22:39:21Z,1391121562,2014,22,40,30.944,29.331,69.0825,-173.8314,1041.9,-3.8,-999.0,yes,yes,no,101628,SVPBD2,AOML,USCG_HEALY,North
2014-01-30T23:39:50Z,1391125190,2014,23,40,30.986,29.331,69.0825,-173.8314,1042.3,-3.8,-999.0,yes,yes,no,101628,SVPBD2,AOML,USCG_HEALY,North
2014-01-31T00:40:19Z,1391128819,2014,0,40,31.028,29.331,69.0825,-173.8314,1042.5,-3.8,-999.0,yes,yes,no,101628,SVPBD2,AOML,USCG_HEALY,North
2014-01-31T01:39:21Z,1391132362,2014,1,40,31.069,29.331,69.0825,-173.8314,1042.6,-3.8,-999.0,yes,yes,no,101628,SVPBD2,AOML,USCG_HEALY,North
2014-01-31T03:40:19Z,1391139619,2014,3,40,31.153,29.331,69.0825,-173.8314,1042.8,-3.8,-999.0,yes,yes,no,101628,SVPBD2,AOML,USCG_HEALY,North
2014-01-31T04:39:21Z,1391143162,2014,4,40,31.194,29.331,69.0825,-173.8314,1042.7,-3.8,-999.0,yes,yes,no,101628,SVPBD2,AOML,USCG_HEALY,North
2014-01-31T05:39:50Z,1391146790,2014,5,40,31.236,29.331,69.0825,-173.8314,1042.5,-3.8,-999.0,yes,yes,no,101628,SVPBD2,AOML,USCG_HEALY,North
2014-01-31T06:40:19Z,1391150419,2014,6,40,31.278,29.331,69.0825,-173.8314,1042.3,-3.8,-999.0,yes,yes,no,101628,SVPBD2,AOML,USCG_HEALY,North
2014-02-01T03:40:19Z,1391226019,2014,3,40,32.153,32.288,69.51,-174.7678,1041.4,-3.72,-999.0,yes,yes,no,101628,SVPBD2,AOML,USCG_HEALY,North
2014-02-01T04:39:21Z,1391229562,2014,4,40,32.194,32.288,69.51,-174.7678,1041.7,-3.64,-999.0,yes,yes,no,101628,SVPBD2,AOML,USCG_HEALY,North
2014-02-01T05:39:50Z,1391233190,2014,5,40,32.236,32.288,69.51,-174.7678,1042.1,-3.64,-999.0,yes,yes,no,101628,SVPBD2,AOML,USCG_HEALY,North
2014-02-01T06:40:19Z,1391236819,2014,6,40,32.278,32.288,69.51,-174.7678,1042.4,-3.64,-999.0,yes,yes,no,101628,SVPBD2,AOML,USCG_HEALY,North
2014-02-01T07:39:21Z,1391240362,2014,7,40,32.319,32.288,69.51,-174.7678,1042.7,-3.64,-999.0,yes,yes,no,101628,SVPBD2,AOML,USCG_HEALY,North